Theta_e
349 349 340 339 342 344 343 343 342 342 341 340 341 340 340 339 338 338 338 341 341 342 342 343 344 345 343 343 344 343 343 341 330 326 326 326 326 326 325 326 326 327 326
347 341 336 334 339 343 342 342 341 340 340 340 340 340 339 339 338 337 337 336 337 338 338 340 343 342 343 342 343 342 342 337 331 325 322 322 322 323 323 323 323 323 322
345 339 338 344 344 342 341 341 341 340 340 339 339 337 337 337 338 337 335 335 334 334 333 335 338 341 342 340 339 339 338 335 329 324 321 320 319 321 321 322 321 320 320
344 342 345 346 345 342 341 341 340 339 338 337 336 335 334 334 335 335 335 335 334 330 326 328 332 335 340 340 338 334 333 331 327 324 321 320 320 320 321 321 321 320 319
344 347 347 346 342 342 341 340 340 339 339 338 337 336 333 330 333 335 335 334 334 332 329 326 325 329 333 336 338 333 331 328 325 323 322 321 320 320 321 323 325 324 322
346 348 347 343 343 342 342 341 341 340 339 338 338 335 329 326 329 331 331 330 331 330 331 329 329 327 326 331 333 335 333 329 327 325 324 324 323 324 324 325 326 324 325
346 347 347 343 343 342 342 341 340 340 339 339 338 336 331 324 327 329 331 331 330 329 328 327 329 327 328 327 327 328 331 332 332 331 329 328 327 326 326 325 325 327 325
349 347 348 346 344 341 339 340 340 339 338 338 337 337 333 324 326 330 332 331 330 330 328 325 326 325 325 321 318 320 323 326 327 328 327 326 326 326 326 325 325 324 324
349 348 349 348 345 341 341 340 340 339 338 337 337 336 333 324 325 329 331 332 330 329 327 326 322 323 323 319 316 310 308 307 308 307 306 307 310 318 321 319 324 325 325
350 349 348 348 347 342 342 341 340 339 336 334 336 336 333 325 324 327 328 331 330 327 322 320 319 321 322 323 321 317 314 314 317 316 314 313 313 313 312 312 315 315 317
346 350 348 348 346 345 344 343 340 339 336 334 335 335 332 330 322 325 325 329 328 326 324 313 312 316 319 321 324 323 321 317 318 318 316 316 315 314 312 311 310 313 314
350 349 349 347 344 345 345 343 340 338 337 337 334 333 332 331 325 321 324 326 323 323 318 313 308 307 309 311 312 314 315 318 317 319 314 312 312 312 311 311 310 308 308
349 349 348 346 344 344 343 342 340 339 339 336 334 332 330 328 327 324 320 321 322 321 317 312 306 306 306 305 308 310 311 313 314 312 312 311 310 310 310 312 312 311 311
344 345 345 345 344 343 342 341 340 339 339 337 334 333 328 327 325 323 320 320 320 318 314 306 309 312 312 309 311 311 310 311 311 310 310 310 310 310 310 309 309 309 309
340 340 339 339 336 336 336 336 336 338 337 337 335 331 327 325 325 323 322 319 317 315 307 307 310 311 310 312 313 313 312 311 311 311 311 311 310 310 309 309 309 309 309
337 337 336 336 332 326 327 327 329 331 333 334 333 331 326 324 324 325 324 322 317 310 309 313 312 314 317 317 314 312 310 311 312 312 311 311 310 310 308 309 309 309 309
334 336 334 333 331 325 322 322 323 324 325 326 327 326 325 325 323 324 324 321 318 310 311 315 315 319 317 313 313 313 313 312 311 312 311 311 310 310 310 310 310 310 309
332 332 332 331 330 327 322 321 321 321 320 320 321 322 322 321 320 320 321 319 312 311 310 313 318 317 315 313 313 312 313 312 312 311 311 311 311 310 310 310 309 310 309
331 330 331 331 330 327 324 323 322 320 320 318 318 319 318 317 317 317 315 314 315 312 309 311 314 316 314 313 314 314 313 313 313 311 311 311 312 311 310 310 310 309 308
329 328 328 329 329 327 325 323 324 325 323 318 316 315 313 310 310 310 311 312 314 316 314 314 316 315 314 314 314 313 313 312 311 310 312 313 311 310 311 310 310 310 310
328 328 328 328 329 328 329 328 326 325 323 321 321 319 315 313 316 317 316 315 315 317 319 318 315 314 314 314 314 313 313 314 313 313 314 313 311 312 310 310 310 310 310
328 327 327 327 327 328 329 329 329 329 329 327 326 323 319 316 317 316 316 316 316 316 316 314 314 314 313 314 314 314 314 314 313 312 312 312 312 310 310 310 310 309 308
329 328 329 328 328 329 328 329 328 328 329 322 317 316 315 313 314 313 314 313 312 312 313 313 313 313 314 313 314 313 313 312 311 312 313 313 312 311 310 309 308 307 306
328 327 329 329 329 323 321 322 320 317 317 317 317 313 312 311 312 314 314 314 314 314 313 313 313 314 313 313 313 313 313 312 312 311 311 310 310 309 307 306 305 303 301
328 326 328 325 322 319 317 317 317 318 318 318 318 315 313 313 314 315 316 316 315 314 314 314 314 313 312 313 314 312 312 310 310 308 307 306 304 304 303 302 300 299 299
328 327 327 324 324 321 319 318 319 320 320 320 319 320 317 318 318 318 318 318 317 315 314 314 313 312 313 314 313 311 308 306 305 306 304 302 300 297 298 298 298 298 298
Wind_Speed
9 7 8 20 11 7 8 6 7 7 7 7 7 6 7 9 9 9 10 13 15 16 17 21 17 14 13 12 11 10 9 13 10 8 17 14 13 11 11 9 9 10 10
8 8 6 12 15 9 9 7 5 8 7 7 7 8 8 9 10 12 12 12 14 19 18 21 22 17 19 17 16 16 13 10 17 15 12 8 10 9 10 10 10 11 11
7 9 12 10 9 9 9 8 8 7 6 7 7 8 10 9 9 11 13 14 16 18 18 16 17 19 17 16 14 15 15 13 15 16 10 11 11 10 10 9 9 9 10
9 9 7 7 8 9 8 7 6 6 7 6 7 8 9 9 10 11 11 12 15 19 22 22 21 20 18 15 16 15 18 20 18 17 17 13 10 8 7 7 5 6 6
13 10 7 6 8 7 7 6 6 5 6 6 5 6 7 6 6 9 10 12 14 14 16 20 23 21 18 14 16 13 14 17 18 18 13 12 11 8 6 5 5 6 5
14 11 8 12 10 8 6 5 5 4 5 5 5 7 7 5 8 10 11 11 10 10 8 11 17 19 20 19 18 16 11 16 16 15 12 10 10 7 6 7 6 7 4
15 14 12 11 10 8 5 5 6 6 4 3 4 7 5 6 8 10 11 10 10 9 10 13 12 13 13 15 16 17 19 15 9 8 12 10 11 10 7 7 6 3 6
18 17 15 14 17 16 12 12 11 7 7 6 5 8 5 6 9 10 10 8 9 11 11 10 9 11 12 12 13 17 18 15 13 14 13 12 9 8 4 4 5 4 4
17 14 15 16 16 16 14 14 10 9 10 9 7 8 5 7 10 8 6 7 8 7 7 10 7 9 11 12 12 15 15 16 14 12 11 10 7 4 2 1 7 8 11
13 16 16 15 14 17 16 15 13 10 12 12 8 7 7 7 9 6 3 8 9 9 6 4 5 9 8 8 9 10 11 11 6 8 10 10 10 13 9 8 9 16 12
14 16 18 18 15 16 17 16 15 12 10 11 9 9 7 8 11 10 4 2 11 6 7 6 6 7 6 4 7 10 7 8 8 8 7 8 8 12 9 8 5 9 10
9 14 14 18 16 15 16 17 17 16 14 13 13 11 9 10 11 10 7 6 10 5 8 7 7 6 5 3 4 6 7 6 9 10 9 8 8 9 7 5 4 6 3
1 4 7 11 16 14 14 15 17 17 16 20 19 16 15 15 14 14 11 9 9 8 9 7 9 9 9 5 7 5 1 9 3 9 9 8 4 3 3 3 6 6 5
3 5 6 7 7 9 8 13 18 19 17 20 23 21 18 16 16 15 14 12 12 11 10 12 11 5 2 6 6 3 3 4 8 7 6 3 2 1 3 5 6 6 7
4 5 5 4 4 7 8 10 11 14 24 23 29 26 24 20 19 16 14 13 13 12 14 12 8 8 11 11 6 7 5 3 4 2 2 2 2 3 6 3 3 6 7
4 5 7 8 7 5 8 9 9 13 19 22 24 26 21 20 16 16 17 16 14 16 16 14 15 18 19 17 15 11 5 4 3 2 3 3 3 3 4 5 2 3 4
5 4 5 6 5 4 8 8 7 6 7 10 13 17 20 17 15 18 19 18 15 19 17 17 19 17 9 8 8 13 15 11 6 2 1 2 1 2 4 5 2 6 3
6 7 6 8 9 6 8 8 9 11 11 12 15 18 17 15 16 17 17 16 18 19 18 17 15 14 11 10 9 8 12 6 9 5 3 3 3 2 7 2 8 3 2
8 8 7 8 11 11 9 9 9 11 12 15 16 16 15 15 16 16 17 18 16 16 19 20 19 14 12 11 10 8 6 5 8 5 7 9 5 3 8 9 9 9 10
10 11 9 6 9 9 9 12 14 14 14 16 16 17 19 18 16 18 20 22 17 15 20 23 19 13 14 12 12 9 8 11 10 12 12 11 5 9 11 9 12 12 8
11 11 13 11 11 13 15 16 15 16 17 18 21 24 22 22 17 18 18 18 18 19 21 23 15 18 12 15 13 14 16 19 23 21 20 13 9 10 8 10 13 14 15
11 13 13 14 16 18 20 19 19 21 19 21 21 27 22 20 19 21 21 20 20 22 20 12 12 17 20 20 21 19 20 18 10 6 5 9 5 6 10 12 13 13 15
15 15 19 20 21 22 23 20 21 22 23 18 21 21 23 16 18 18 21 19 19 18 14 11 12 14 14 19 17 19 13 7 7 3 4 5 7 9 11 13 15 16 16
15 18 15 19 27 19 14 17 17 15 17 17 19 23 21 20 18 20 15 16 18 18 16 16 14 13 11 3 10 9 8 11 9 5 7 7 7 9 12 14 15 16 17
13 15 16 18 13 12 14 14 14 16 16 15 16 24 24 22 22 18 9 14 18 19 17 16 15 16 16 10 10 13 15 15 15 12 10 9 10 13 15 16 16 17 15
14 13 15 11 11 13 10 10 1 8 14 16 6 4 12 13 11 12 14 12 12 12 12 11 13 14 15 14 12 14 15 14 13 11 11 14 14 14 15 15 15 11 12
Wind_Direction
132 124 96 61 113 138 124 118 102 95 87 82 70 64 57 47 46 43 39 39 41 41 42 38 38 55 75 91 105 112 147 146 118 105 130 125 116 122 114 108 105 102 96
137 125 114 138 151 160 129 114 102 101 95 91 87 74 68 61 63 59 50 47 48 41 36 43 43 53 66 74 81 83 93 111 132 125 128 114 114 120 116 107 99 101 99
145 133 139 162 153 125 115 117 108 103 93 85 86 84 78 70 74 72 71 64 60 58 51 48 51 52 58 73 83 89 91 94 135 133 120 130 122 125 120 116 116 111 110
158 156 169 176 155 140 128 124 120 120 111 105 101 95 87 81 72 71 74 74 72 61 62 62 61 61 66 76 82 84 97 101 110 121 123 128 130 139 137 139 130 114 105
166 161 183 175 154 144 141 144 140 136 127 124 110 93 86 82 92 83 81 75 75 75 65 65 64 65 65 82 89 92 112 117 120 123 130 144 148 157 171 154 155 142 171
166 169 174 162 147 149 163 158 156 149 150 144 132 113 91 97 98 89 90 83 79 78 81 76 68 59 65 69 77 92 100 109 127 130 140 148 158 162 175 166 172 184 195
178 175 165 153 150 159 180 180 195 176 178 194 138 130 106 120 125 105 100 91 84 70 58 63 75 73 87 73 72 89 91 89 109 138 139 153 162 167 169 175 195 204 155
185 179 173 172 180 179 185 209 198 182 189 190 149 140 140 146 147 129 112 107 94 88 85 73 84 83 95 91 90 93 93 96 96 105 112 112 124 133 157 173 186 201 180
172 179 176 180 194 195 201 201 203 197 187 190 156 174 181 168 162 158 121 129 113 88 103 104 96 113 106 113 102 100 94 91 84 85 92 94 113 127 128 345 247 235 234
189 183 189 191 197 205 206 196 192 210 205 203 193 191 181 183 185 194 176 150 148 126 102 117 120 139 128 137 147 135 137 138 111 119 113 116 106 90 71 31 26 3 15
219 191 192 195 206 206 202 200 201 204 198 201 203 187 187 217 203 202 208 111 162 155 147 125 124 140 148 126 126 149 158 170 185 209 198 184 166 137 88 31 46 25 34
220 194 190 199 200 211 208 205 206 208 205 201 197 191 194 213 212 208 194 178 147 149 139 146 131 119 124 148 149 156 176 222 257 246 130 97 62 75 66 19 39 56 67
148 204 198 217 220 216 220 207 195 204 212 200 197 198 202 202 211 203 206 195 172 167 169 164 138 123 108 90 133 136 258 307 337 93 81 87 71 10 7 265 288 275 276
184 218 208 234 211 193 200 215 210 204 212 201 197 201 199 204 208 204 196 195 188 188 175 161 154 157 166 146 141 91 31 48 60 54 66 78 117 43 117 38 357 346 305
206 219 230 250 250 250 243 244 238 227 224 216 211 204 188 194 207 205 193 191 191 189 168 172 190 192 197 203 211 179 161 154 141 109 73 37 97 19 63 21 343 332 341
208 223 230 233 199 253 252 247 250 238 233 232 228 209 200 201 207 199 195 200 199 181 179 196 214 226 224 207 176 173 174 161 131 120 103 63 19 95 19 288 231 300 299
246 269 213 224 204 208 235 220 211 206 212 220 224 210 198 197 192 197 198 197 196 190 200 218 226 234 211 160 184 195 173 148 171 214 164 136 280 340 277 280 261 261 62
263 260 256 240 210 199 216 212 203 186 177 177 180 185 190 200 204 204 199 194 192 206 216 242 259 202 190 186 202 187 159 162 187 192 217 234 218 255 284 277 282 253 150
274 256 257 247 204 186 201 199 191 184 179 183 179 186 192 190 193 192 191 191 203 209 222 242 252 200 186 194 203 172 149 135 148 174 246 233 233 276 285 279 284 278 250
270 262 266 250 204 195 198 205 199 196 187 188 190 193 182 181 184 193 201 207 221 224 214 230 239 186 191 202 191 181 212 224 232 235 224 230 259 272 279 303 309 310 297
275 268 247 243 232 226 218 208 200 198 198 201 202 188 193 186 195 200 207 216 227 243 248 226 204 185 192 200 192 200 220 226 225 228 233 209 244 241 284 292 289 294 291
262 265 240 235 240 230 229 225 222 214 210 208 220 184 190 190 208 201 201 206 217 239 258 210 216 191 194 210 209 212 223 234 249 299 310 226 234 309 308 311 314 317 321
249 261 254 231 243 239 234 236 223 221 223 216 150 164 182 202 228 250 201 204 212 222 234 203 209 243 222 216 210 207 225 256 282 292 269 272 284 291 296 301 302 297 291
272 272 261 269 258 254 231 233 245 224 227 212 179 168 190 203 223 252 212 210 206 209 215 218 216 228 249 184 202 206 217 226 216 212 238 248 269 282 290 288 290 289 290
266 267 265 286 289 257 246 238 258 243 224 241 224 181 186 201 214 231 237 232 219 210 213 200 197 215 233 243 231 221 225 226 225 235 237 248 264 271 275 275 274 272 274
256 266 261 284 336 333 291 239 245 16 5 352 299 230 162 91 68 355 296 288 264 203 193 214 226 234 234 217 217 229 220 219 234 247 266 277 276 270 267 264 269 269 273